Charlottesville, VA

12:29 PM EDT on October 14, 2019 (GMT -0400)
Charlottesville-Albemarle

Weather History for KCHO - August, 2019

Change the Weather History Date:

Sunday, August 4, 2019

  Actual Average Record
Temperature  
Mean Temperature 81 °F 75 °F  
Max Temperature 91 °F 85 °F 106 °F (1930)
Min Temperature 71 °F 65 °F 54 °F (1912)
Degree Days  
Heating Degree Days 0 0  
Month to date heating degree days 0 0  
Since 1 June heating degree days 0 12  
Since 1 July heating degree days 0 1  
Cooling Degree Days 16 10  
Month to date cooling degree days 55 40  
Year to date cooling degree days 1123 670  
Since 1 June cooling degree days 837 584  
Growing Degree Days 30 (Base 50)    
Moisture  
Dew Point 67 °F    
Average Humidity 67    
Maximum Humidity 90    
Minimum Humidity 44    
Precipitation  
Precipitation T in 0.14 in 0.55 in (2010)
Month to date precipitation 0.22 0.57  
Year to date precipitation 25.52 25.09  
Sea Level Pressure  
Sea Level Pressure 29.94 in    
Wind  
Wind Speed 3 mph (NE)    
Max Wind Speed 8 mph    
Max Gust Speed 12 mph    
Visibility 10 miles    
Events Rain    
T = Trace of Precipitation, MM = Missing Value Source: NWS Daily Summary

Daily Weather History Graph

Daily Weather History Graph

Search for Another Location

Airport or City:

Astronomy

Aug. 04, 2019 Rise Set
Actual Time 6:18 AM EDT 8:20 PM EDT
Civil Twilight 5:49 AM EDT 8:49 PM EDT
Nautical Twilight 5:14 AM EDT 9:24 PM EDT
Astronomical Twilight 4:36 AM EDT 10:02 PM EDT
Moon 10:19 AM EDT (8/4) 11:02 PM EDT (8/4)
Length of Visible Light 14h 59m
Length of Day
14h 01m
Waxing Crescent, 18% of the Moon is Illuminated
Aug 4
Waxing Crescent
Aug 7
First Quarter
Aug 15
Full
Aug 23
Last Quarter
Aug 30
New

Hourly Weather History & Observations

Time (EDT) Temp. Heat Index Dew Point Humidity Pressure Visibility Wind Dir Wind Speed Gust Speed Precip Events Conditions
12:53 AM 75.9 °F - 71.1 °F 85% 29.95 in 10.0 mi Calm Calm - 0.00 in Rain Light Rain
1:53 AM 75.9 °F - 69.1 °F 79% 29.95 in 10.0 mi Calm Calm - 0.00 in   Mostly Cloudy
2:53 AM 75.9 °F - 69.1 °F 79% 29.94 in 10.0 mi Calm Calm - N/A   Mostly Cloudy
3:53 AM 73.0 °F - 69.1 °F 87% 29.93 in 10.0 mi West 3.5 mph - N/A   Clear
4:53 AM 72.0 °F - 68.0 °F 87% 29.93 in 8.0 mi Calm Calm - N/A   Clear
5:53 AM 71.1 °F - 66.9 °F 87% 29.94 in 8.0 mi Calm Calm - N/A   Clear
6:53 AM 71.1 °F - 66.9 °F 87% 29.95 in 7.0 mi Calm Calm - N/A   Clear
7:53 AM 73.0 °F - 69.1 °F 87% 29.96 in 10.0 mi Calm Calm - N/A   Clear
8:53 AM 78.1 °F - 68.0 °F 71% 29.96 in 10.0 mi South 3.5 mph - N/A   Clear
9:53 AM 82.9 °F 85.8 °F 68.0 °F 60% 29.96 in 10.0 mi NNW 4.6 mph - N/A   Clear
10:53 AM 84.9 °F 88.2 °F 68.0 °F 57% 29.96 in 10.0 mi ENE 3.5 mph - N/A   Clear
11:53 AM 87.1 °F 89.9 °F 66.9 °F 51% 29.95 in 10.0 mi Variable 5.8 mph - N/A   Clear
12:53 PM 87.1 °F 89.2 °F 66.0 °F 49% 29.94 in 10.0 mi North 5.8 mph - N/A   Mostly Cloudy
1:53 PM 89.1 °F 90.3 °F 64.0 °F 43% 29.93 in 10.0 mi Variable 3.5 mph - N/A   Clear
2:53 PM 89.1 °F 90.3 °F 64.0 °F 43% 29.91 in 10.0 mi Calm Calm - N/A   Scattered Clouds
3:53 PM 87.1 °F 89.2 °F 66.0 °F 49% 29.90 in 10.0 mi East 6.9 mph - N/A   Partly Cloudy
4:53 PM 89.1 °F 91.3 °F 66.0 °F 46% 29.90 in 10.0 mi East 5.8 mph - N/A   Clear
5:53 PM 87.1 °F 88.9 °F 64.9 °F 48% 29.90 in 10.0 mi ENE 6.9 mph - N/A   Mostly Cloudy
6:53 PM 87.1 °F 89.2 °F 66.0 °F 49% 29.91 in 10.0 mi ENE 5.8 mph - N/A   Overcast
7:53 PM 84.9 °F 87.6 °F 66.9 °F 55% 29.92 in 10.0 mi NE 4.6 mph - N/A   Partly Cloudy
8:53 PM 82.0 °F 84.1 °F 66.0 °F 58% 29.93 in 10.0 mi Calm Calm - N/A   Scattered Clouds
9:53 PM 79.0 °F - 64.9 °F 62% 29.95 in 10.0 mi NNW 4.6 mph - N/A   Overcast
10:53 PM 77.0 °F - 63.0 °F 62% 29.95 in 10.0 mi Calm Calm - N/A   Overcast
11:53 PM 75.0 °F - 64.9 °F 71% 29.96 in 10.0 mi NNW 3.5 mph - N/A   Overcast